Weather reports worldwide

Advertisment
Estepona, Spain (8463): temperature & dewpoint: 30.06.2020 18:00:00 - 06.07.2020 18:00:00 (CEST)Estepona, Spain (8463): wind speed & gusts: 30.06.2020 18:00:00 - 06.07.2020 18:00:00 (CEST)Estepona, Spain (8463): wind direction: 30.06.2020 18:00:00 - 06.07.2020 18:00:00 (CEST)Estepona, Spain (8463): reduced air pressure: 30.06.2020 18:00:00 - 06.07.2020 18:00:00 (CEST)Estepona, Spain (8463): visibility: 30.06.2020 18:00:00 - 06.07.2020 18:00:00 (CEST)Estepona, Spain (8463): sunshine duration: 30.06.2020 18:00:00 - 06.07.2020 18:00:00 (CEST)Estepona, Spain (8463): precipitation: 30.06.2020 18:00:00 - 06.07.2020 18:00:00 (CEST)
Date & Time tt [°C] td [°C] ff [km/h] ff [kn] fx [km/h] fx [kn] dd ppp [hPa] vv [km] sd [min] rr [mm]
06.07.2020 18:00:00 - - - - - - - - - - -
06.07.2020 17:00:00 28,0 17,5 5 3 9 5 ESE 1017,1 19 7 0,0
06.07.2020 16:00:00 28,3 17,2 4 2 13 7 S 1017,5 19 0 0,0
06.07.2020 15:00:00 28,1 15,7 6 4 13 7 SE - 20 0 0,0
06.07.2020 14:00:00 28,7 14,5 4 2 9 5 SE 1018,1 19 0 -
06.07.2020 13:00:00 28,6 12,1 4 2 10 5 SE 1018,1 20 16 0,0
06.07.2020 12:00:00 27,3 14,7 3 2 8 5 SSW 1018,3 20 60 0,0
06.07.2020 11:00:00 25,4 13,9 4 2 11 6 SSW 1018,3 14 60 0,0
06.07.2020 10:00:00 24,0 12,6 6 3 11 6 SW 1018,4 20 60 0,0
06.07.2020 09:00:00 21,9 13,3 4 2 7 4 SW 1018,0 20 57 0,0
06.07.2020 08:00:00 18,8 10,9 4 2 6 4 W 1017,9 20 4 -
06.07.2020 07:00:00 19,2 11,0 2 1 5 3 NE 1017,8 17 0 0,0
06.07.2020 06:00:00 20,5 11,7 3 1 11 6 WNW 1017,7 6 0 0,0
06.07.2020 05:00:00 20,7 8,0 4 2 13 7 NE 1018,0 12 0 0,0
06.07.2020 04:00:00 21,4 9,6 2 1 11 6 N 1018,0 17 0 0,0
06.07.2020 03:00:00 24,0 9,6 6 3 17 9 NE 1018,6 20 0 0,0
06.07.2020 02:00:00 22,7 11,1 9 5 16 9 NE 1019,3 20 0 -
06.07.2020 01:00:00 22,2 12,4 6 3 12 7 NE 1019,6 4,3 0 0,0
06.07.2020 00:00:00 22,7 12,6 6 3 13 7 NE 1019,8 14 0 0,0
05.07.2020 23:00:00 23,2 13,9 6 4 11 6 ENE 1019,5 12 0 0,0
05.07.2020 22:00:00 24,1 13,9 6 4 11 6 ENE 1019,2 7 0 0,0
05.07.2020 21:00:00 - - - - - - - - - - -
05.07.2020 20:00:00 27,2 15,9 7 4 15 8 E 1018,8 19 60 -
05.07.2020 19:00:00 27,8 15,4 7 4 13 7 E 1019,0 17 60 0,0
05.07.2020 18:00:00 28,1 15,7 6 3 13 7 E 1019,4 17 60 0,0
05.07.2020 17:00:00 28,6 14,8 8 4 18 10 E 1019,7 14 8 0,0
05.07.2020 16:00:00 28,7 15,3 9 5 19 11 E 1020,0 16 0 0,0
05.07.2020 15:00:00 27,7 15,7 12 6 18 10 E - 20 0 0,0
05.07.2020 14:00:00 28,6 16,2 10 5 17 9 E 1021,2 20 0 -
05.07.2020 13:00:00 27,8 16,1 10 6 20 11 E 1021,4 20 13 0,0
05.07.2020 12:00:00 26,3 17,4 13 7 19 10 E 1021,2 17 60 0,0
05.07.2020 11:00:00 25,1 17,1 11 6 19 10 E 1021,0 18 60 0,0
05.07.2020 10:00:00 24,0 16,0 6 3 15 8 E 1021,1 18 60 0,0
05.07.2020 09:00:00 23,9 14,9 11 6 20 11 E 1020,5 20 59 0,0
05.07.2020 08:00:00 22,7 14,5 6 3 18 10 ENE 1020,0 20 4 -
05.07.2020 07:00:00 23,1 13,9 9 5 16 8 NE 1019,6 20 0 0,0
05.07.2020 06:00:00 23,2 14,2 8 4 19 10 NE 1019,4 20 0 0,0
05.07.2020 05:00:00 23,1 14,6 9 5 18 10 NE 1019,8 20 0 0,0
05.07.2020 04:00:00 22,2 15,5 8 5 21 12 NE 1020,2 20 0 0,0
05.07.2020 03:00:00 21,3 16,5 7 4 14 8 ENE 1020,5 19 0 0,0
05.07.2020 02:00:00 21,8 17,1 6 3 15 8 ENE 1021,0 19 0 -
05.07.2020 01:00:00 22,3 17,5 8 4 19 10 ENE 1021,2 18 0 0,0
05.07.2020 00:00:00 22,1 17,5 8 4 17 9 ENE 1021,1 19 0 0,0
04.07.2020 23:00:00 22,5 17,6 9 5 20 11 ENE 1020,5 16 0 0,0
04.07.2020 22:00:00 22,2 17,5 9 5 21 11 ENE 1020,0 18 0 0,0
04.07.2020 21:00:00 23,6 17,4 13 7 20 11 ENE 1019,8 20 57 0,0
04.07.2020 20:00:00 25,3 18,0 13 7 21 11 ENE 1019,7 16 60 -
04.07.2020 19:00:00 25,9 18,1 12 6 22 12 E 1019,9 16 60 0,0
04.07.2020 18:00:00 26,3 18,2 12 7 23 12 E 1020,4 19 60 0,0
04.07.2020 17:00:00 26,5 18,1 14 7 24 13 E 1020,9 20 10 0,0
04.07.2020 16:00:00 26,6 18,2 15 8 26 14 E 1021,5 17 0 0,0
04.07.2020 15:00:00 26,9 18,5 16 8 29 15 ENE - 15 0 0,0
04.07.2020 14:00:00 27,3 18,3 16 9 28 15 ENE 1022,3 14 0 -
04.07.2020 13:00:00 27,4 17,9 11 6 29 16 ENE 1022,6 20 16 0,0
04.07.2020 12:00:00 24,5 18,2 16 9 29 16 ENE 1022,5 16 44 0,0
04.07.2020 11:00:00 22,9 18,2 20 11 32 18 ENE 1022,3 13 0 0,0
04.07.2020 10:00:00 22,5 17,9 15 8 26 14 E 1022,1 13 0 0,0
04.07.2020 09:00:00 22,4 18,5 8 5 20 11 ENE 1021,5 17 0 0,0
04.07.2020 08:00:00 22,6 19,2 8 5 23 13 NE 1020,8 17 0 -
04.07.2020 07:00:00 21,9 18,9 8 4 17 9 ENE 1020,7 10 0 0,0
04.07.2020 06:00:00 21,4 18,2 9 5 26 14 ENE 1020,3 9 0 0,0
04.07.2020 05:00:00 21,7 17,9 10 5 18 10 ENE 1020,0 13 0 0,0
04.07.2020 04:00:00 21,4 17,4 7 4 18 10 ENE 1020,2 14 0 0,0
04.07.2020 03:00:00 21,8 17,4 7 4 14 7 NE 1020,5 20 0 0,0
04.07.2020 02:00:00 21,7 17,5 6 4 13 7 ENE 1020,8 16 0 -
04.07.2020 01:00:00 22,1 18,1 7 4 14 8 ENE 1020,9 13 0 0,0
04.07.2020 00:00:00 22,3 18,1 4 2 9 5 ENE 1020,6 13 0 0,0
03.07.2020 23:00:00 22,7 18,2 5 3 11 6 ENE 1019,7 15 0 0,0
03.07.2020 22:00:00 23,0 17,9 6 4 12 7 ENE 1019,2 16 0 0,0
03.07.2020 21:00:00 24,7 17,9 6 3 13 7 E 1018,6 16 58 0,0
03.07.2020 20:00:00 25,2 18,2 9 5 19 11 E 1018,4 15 60 -
03.07.2020 19:00:00 26,1 18,2 13 7 23 12 E 1018,3 19 60 0,0
03.07.2020 18:00:00 26,0 18,4 14 8 26 14 E 1018,5 13 60 0,0
03.07.2020 17:00:00 26,7 18,0 16 8 27 15 E 1018,8 14 5 0,0
03.07.2020 16:00:00 - - - - - - - - - - -
03.07.2020 15:00:00 25,3 17,2 19 10 34 18 E - 11 0 0,0
03.07.2020 14:00:00 28,0 15,3 12 7 37 20 ENE 1019,0 15 0 -
03.07.2020 13:00:00 30,8 11,2 12 6 21 11 ENE 1018,0 20 11 0,0
03.07.2020 12:00:00 28,1 14,3 9 5 19 11 ENE 1018,0 20 60 0,0
03.07.2020 11:00:00 29,5 12,0 6 4 13 7 ENE 1017,6 11 60 0,0
03.07.2020 10:00:00 27,0 9,3 4 2 11 6 E 1017,3 20 60 0,0
03.07.2020 09:00:00 24,4 12,0 4 2 8 4 NE 1017,0 9 59 0,0
03.07.2020 08:00:00 20,9 12,1 2 1 8 5 W 1016,7 20 11 -
03.07.2020 07:00:00 20,9 10,4 3 1 14 7 W 1016,5 15 0 0,0
03.07.2020 06:00:00 21,9 9,8 3 2 11 6 E 1016,2 20 0 0,0
03.07.2020 05:00:00 23,1 9,4 3 1 10 5 NW 1016,1 20 0 0,0
03.07.2020 04:00:00 23,8 10,4 3 1 9 5 N 1016,2 20 0 0,0
03.07.2020 03:00:00 25,6 8,5 3 2 10 5 N 1016,4 20 0 0,0
03.07.2020 02:00:00 28,8 7,4 3 1 38 20 NNW 1016,4 20 0 -
03.07.2020 01:00:00 29,2 8,8 17 9 35 19 W 1016,8 20 0 0,0
03.07.2020 00:00:00 28,6 8,8 22 12 37 20 W 1016,9 20 0 0,0
02.07.2020 23:00:00 30,0 7,8 9 5 28 15 WSW 1016,2 20 0 0,0
02.07.2020 22:00:00 31,3 8,3 11 6 29 16 W 1015,3 20 0 0,0
02.07.2020 21:00:00 33,7 7,6 17 9 37 20 W 1014,5 20 57 0,0
02.07.2020 20:00:00 36,2 5,5 17 9 37 20 W 1014,1 20 60 -
02.07.2020 19:00:00 - - - - - - - - - - -
02.07.2020 18:00:00 39,1 5,6 21 11 45 24 W 1014,1 20 60 0,0
02.07.2020 17:00:00 39,5 5,9 18 10 41 22 W 1014,2 20 13 0,0
02.07.2020 16:00:00 - - - - - - - - - - -
02.07.2020 15:00:00 31,3 14,0 7 4 23 12 E - 20 0 0,0
02.07.2020 14:00:00 - - - - - - - - - - -
02.07.2020 13:00:00 34,6 13,9 13 7 29 15 WSW 1015,3 20 18 0,0
02.07.2020 12:00:00 30,0 14,9 12 7 27 14 SSW 1015,7 19 60 0,0
02.07.2020 11:00:00 28,2 15,5 16 8 27 15 WSW 1015,6 17 60 0,0
02.07.2020 10:00:00 25,7 13,6 5 3 19 11 W 1015,4 20 60 0,0
02.07.2020 09:00:00 23,8 13,4 9 5 26 14 W 1015,0 20 57 0,0
02.07.2020 08:00:00 23,5 9,4 14 7 33 18 W 1014,4 20 0 -
02.07.2020 07:00:00 24,1 8,1 11 6 29 16 WSW 1013,9 20 0 0,0
02.07.2020 06:00:00 24,7 4,5 6 4 17 9 W 1013,5 20 0 0,0
02.07.2020 05:00:00 23,0 5,8 8 5 18 10 WSW 1013,6 20 0 0,0
02.07.2020 04:00:00 22,6 5,9 6 3 14 7 ENE 1013,7 20 0 0,0
02.07.2020 03:00:00 26,6 8,5 5 3 27 15 NE 1014,0 11 0 0,0
02.07.2020 02:00:00 26,1 5,6 9 5 23 12 W 1014,4 20 0 -
02.07.2020 01:00:00 24,0 8,4 6 3 16 8 W 1014,4 20 0 0,0
02.07.2020 00:00:00 24,7 12,0 5 3 9 5 E 1014,3 15 0 0,0
01.07.2020 23:00:00 28,3 9,6 3 2 18 10 E 1013,3 20 0 0,0
01.07.2020 22:00:00 30,5 7,7 10 6 33 18 W 1012,8 20 0 0,0
01.07.2020 21:00:00 33,4 8,1 18 10 33 18 WSW 1012,6 20 55 0,0
01.07.2020 20:00:00 36,5 8,4 19 10 32 17 WSW 1012,4 20 60 -
01.07.2020 19:00:00 36,3 9,8 17 9 29 16 WSW 1012,4 20 60 0,0
01.07.2020 18:00:00 33,8 12,7 16 8 28 15 WSW 1012,9 20 60 0,0
01.07.2020 17:00:00 32,2 13,5 8 5 21 12 WSW 1013,1 19 9 0,0
01.07.2020 16:00:00 31,0 14,6 5 3 19 10 ENE 1013,6 17 0 0,0
01.07.2020 15:00:00 29,6 15,0 7 4 12 7 E - 20 0 0,0
01.07.2020 14:00:00 28,4 16,0 6 3 13 7 E 1014,6 14 0 -
01.07.2020 13:00:00 27,7 16,6 7 4 16 9 E 1015,1 17 11 0,0
01.07.2020 12:00:00 25,4 16,8 8 5 17 9 ENE 1015,1 14 60 0,0
01.07.2020 11:00:00 24,3 16,6 7 4 11 6 E 1015,4 15 60 0,0
01.07.2020 10:00:00 22,0 16,5 3 2 6 4 SSE 1015,0 16 60 0,0
01.07.2020 09:00:00 19,9 16,1 2 1 5 3 SW 1014,9 17 60 0,0
01.07.2020 08:00:00 18,3 15,2 3 2 6 3 WSW 1014,6 13 13 -
01.07.2020 07:00:00 18,1 15,0 3 2 6 4 NE 1014,6 18 0 0,0
01.07.2020 06:00:00 18,4 14,9 1 1 4 2 SSW 1013,9 12 0 0,0
01.07.2020 05:00:00 18,5 15,0 0 0 5 3 N 1013,8 19 0 0,0
01.07.2020 04:00:00 19,0 15,9 5 3 8 4 ENE 1013,9 16 0 0,0
01.07.2020 03:00:00 19,7 16,7 3 1 8 4 ENE 1014,3 12 0 0,0
01.07.2020 02:00:00 19,8 16,6 5 3 9 5 ENE 1014,8 9 0 -
01.07.2020 01:00:00 20,7 17,3 2 1 5 3 S 1015,1 4,3 0 0,0
01.07.2020 00:00:00 21,3 17,5 3 2 8 4 WSW 1015,3 8 0 0,0
30.06.2020 23:00:00 - - - - - - - - - - -
30.06.2020 22:00:00 22,8 17,9 8 4 12 7 W 1014,3 12 0 0,0
30.06.2020 21:00:00 25,3 18,0 7 4 13 7 WSW 1013,3 16 58 0,0
30.06.2020 20:00:00 - - - - - - - - - - -
30.06.2020 19:00:00 - - - - - - - - - - -
30.06.2020 18:00:00 28,8 18,5 6 4 11 6 SW 1014,2 20 60 0,0

tt = temperature
td = dewpoint
ff = wind speed
fx = gusts
dd = wind direction
ppp = reduced air pressure
vv = visibility
sd = sunshine duration
rr = precipitation

Next stations